TimePDT,TemperatureF,Dew PointF,Humidity,Sea Level PressureIn,VisibilityMPH,Wind Direction,Wind SpeedMPH,Gust SpeedMPH,PrecipitationIn,Events,Conditions,WindDirDegrees,DateUTC
12:56 AM,55.9,37.9,51,30.11,10.0,WNW,13.8,20.7,N/A,,Scattered Clouds,300,2013-05-14 07:56:00
1:56 AM,55.0,37.0,51,30.14,10.0,West,6.9,-,N/A,,Scattered Clouds,280,2013-05-14 08:56:00
2:56 AM,54.0,36.0,51,30.14,10.0,West,5.8,-,N/A,,Clear,280,2013-05-14 09:56:00
3:56 AM,52.0,37.0,57,30.16,10.0,Calm,Calm,-,N/A,,Clear,0,2013-05-14 10:56:00
4:56 AM,51.1,37.9,61,30.16,10.0,ESE,3.5,-,N/A,,Clear,120,2013-05-14 11:56:00
5:56 AM,51.1,39.0,63,30.16,10.0,SSE,3.5,-,N/A,,Clear,150,2013-05-14 12:56:00
6:56 AM,54.0,39.0,57,30.16,10.0,Calm,Calm,-,N/A,,Clear,0,2013-05-14 13:56:00
7:56 AM,55.9,39.9,55,30.15,10.0,NNE,6.9,-,N/A,,Clear,30,2013-05-14 14:56:00
8:56 AM,57.0,39.9,53,30.15,10.0,Variable,4.6,-,N/A,,Clear,0,2013-05-14 15:56:00
9:56 AM,60.1,37.9,44,30.14,10.0,Variable,4.6,-,N/A,,Clear,0,2013-05-14 16:56:00
10:56 AM,63.0,36.0,37,30.13,10.0,North,5.8,-,N/A,,Clear,10,2013-05-14 17:56:00
11:56 AM,63.0,36.0,37,30.11,10.0,Variable,6.9,-,N/A,,Mostly Cloudy,0,2013-05-14 18:56:00
12:56 PM,66.0,37.0,34,30.09,10.0,Variable,5.8,-,N/A,,Mostly Cloudy,0,2013-05-14 19:56:00
1:56 PM,66.9,37.9,34,30.08,10.0,NNW,8.1,-,N/A,,Partly Cloudy,340,2013-05-14 20:56:00
2:56 PM,66.0,37.0,34,30.06,10.0,WNW,8.1,-,N/A,,Partly Cloudy,290,2013-05-14 21:56:00
3:56 PM,66.9,36.0,32,30.05,10.0,NW,4.6,-,N/A,,Clear,310,2013-05-14 22:56:00
4:56 PM,66.9,36.0,32,30.04,10.0,WNW,10.4,-,N/A,,Clear,300,2013-05-14 23:56:00
5:56 PM,64.9,36.0,34,30.04,10.0,NW,5.8,-,N/A,,Overcast,310,2013-05-15 00:56:00
6:56 PM,66.0,35.1,32,30.04,10.0,NW,3.5,-,N/A,,Scattered Clouds,310,2013-05-15 01:56:00
7:56 PM,62.1,34.0,35,30.04,10.0,North,5.8,-,N/A,,Clear,350,2013-05-15 02:56:00
8:56 PM,60.1,34.0,38,30.05,10.0,Calm,Calm,-,N/A,,Clear,0,2013-05-15 03:56:00
9:56 PM,54.0,35.1,49,30.07,10.0,South,4.6,-,N/A,,Clear,170,2013-05-15 04:56:00
10:56 PM,51.1,34.0,52,30.08,10.0,SSE,3.5,-,N/A,,Clear,160,2013-05-15 05:56:00
11:56 PM,52.0,32.0,47,30.07,10.0,Calm,Calm,-,N/A,,Clear,0,2013-05-15 06:56:00